GSAT-31

Last updated on Nov. 29, 2020, 6:16 a.m. UTC

1 44035U 19007B   20333.83730200  .00000144  00000-0  00000+0 0  9995
2 44035   0.0145  56.1476 0005021 197.9357 163.4134  1.00268997  6657
UTC
Height (km)
Latitude
Longitude
Inclination
Orbital Period
UTC large
Height (km)
Speed (km/s)
/
Latitude / Longitude
Inclination (degrees)
Orbital Period (minutes)
Azimuth
Elevation
Range (km)
Doppler Factor
iOS Compass Heading
iOS Angle

Next 30 passes for location: Hong Kong

Rise time Rise Azimuth (degrees) Set time Set Azimuth (degrees) Duration Max altitude (degrees)

No matching passes for this satellites